Date String (YYYY-MM-DD hh:mm:ss) UTC,Instrument flags,Ambient pressure (hPa),Sample flow (lpm),Bypass flow (lpm),Sample temperature (°C),Ambient temperature (°C),ASC tube jacket temperature (°C),LED temperature (°C),Box temperature (°C),Sample RH (%),Span deviation,Mass concentration (μg/m³),Mass concentration (μg/m³),Mass concentration (μg/m³)
DateTimeUTC,F1_M11,P_M11,Q1_M11,Q2_M11,T1_M11,T2_M11,T3_M11,T4_M11,T5_M11,U1_M11,ZSPAN_M11,X0_M11,X2_M11,X1_M11
2022-10-16 03:00:00,,0833.0,4.99,0.00,30.3,28.9,00.0,39.1,32.1,16.5,0000.0,0010.33,0004.87,0004.20
2022-10-16 03:01:00,,0833.0,5.00,0.00,30.3,28.9,00.0,39.1,32.1,16.5,0000.0,0011.05,0004.90,0004.21
2022-10-16 03:02:00,,0833.1,5.00,0.00,30.3,28.9,00.0,39.1,32.1,16.4,0000.0,0011.44,0004.92,0004.21
2022-10-16 03:03:00,,0833.1,5.00,0.00,30.3,28.9,00.0,39.1,32.1,16.5,0000.0,0012.18,0004.94,0004.21
2022-10-16 03:04:00,,0833.1,5.00,0.00,30.3,28.9,00.0,39.1,32.1,16.4,0000.0,0012.81,0004.94,0004.20
2022-10-16 03:05:00,,0833.1,5.00,0.00,30.3,28.9,00.0,39.1,32.1,16.4,0000.0,0013.18,0004.96,0004.20
2022-10-16 03:06:00,,0833.1,5.00,0.00,30.3,28.9,00.0,39.1,32.1,16.4,0000.0,0013.21,0004.93,0004.18
2022-10-16 03:07:00,,0833.1,5.00,0.00,30.3,28.9,00.0,39.1,32.1,16.4,0000.0,0013.54,0004.89,0004.17
2022-10-16 03:08:00,,0833.1,4.99,0.00,30.3,28.9,00.0,39.1,32.1,16.4,0000.0,0013.98,0004.85,0004.14
2022-10-16 03:09:00,,0833.1,5.00,0.00,30.4,28.9,00.0,39.1,32.1,16.4,0000.0,0014.39,0004.80,0004.11
2022-10-16 03:10:00,,0833.1,5.00,0.00,30.4,28.9,00.0,39.1,32.2,16.4,0000.0,0013.71,0004.70,0004.08
2022-10-16 03:11:00,,0833.1,5.00,0.00,30.4,28.9,00.0,39.2,32.1,16.4,0000.0,0013.90,0004.67,0004.05
2022-10-16 03:12:00,,0833.2,5.01,0.00,30.4,28.9,00.0,39.2,32.2,16.4,0000.0,0013.00,0004.62,0004.04
2022-10-16 03:13:00,,0833.2,5.01,0.00,30.4,29.0,00.0,39.2,32.2,16.4,0000.0,0012.59,0004.60,0004.03
2022-10-16 03:14:00,,0833.1,5.00,0.00,30.4,28.9,00.0,39.2,32.2,16.4,0000.0,0011.92,0004.56,0004.03
2022-10-16 03:15:00,,0833.2,5.00,0.00,30.4,29.0,00.0,39.2,32.2,16.4,0000.0,0011.51,0004.56,0004.02
2022-10-16 03:16:00,,0833.1,4.99,0.00,30.4,29.0,00.0,39.2,32.2,16.4,0000.0,0010.65,0004.52,0004.01
2022-10-16 03:17:00,,0833.2,5.00,0.00,30.4,29.0,00.0,39.2,32.2,16.4,0000.0,0010.33,0004.50,0004.02
2022-10-16 03:18:00,,0833.2,5.00,0.00,30.4,29.0,00.0,39.2,32.2,16.4,0000.0,0009.86,0004.50,0004.01
2022-10-16 03:19:00,,0833.2,5.00,0.00,30.4,29.0,00.0,39.2,32.2,16.4,0000.0,0009.59,0004.54,0004.01
2022-10-16 03:20:00,,0833.3,5.00,0.00,30.4,29.0,00.0,39.2,32.2,16.4,0000.0,0009.26,0004.59,0004.02
2022-10-16 03:21:00,,0833.3,5.01,0.00,30.4,29.0,00.0,39.2,32.2,16.4,0000.0,0009.23,0004.60,0004.03
2022-10-16 03:22:00,,0833.3,5.00,0.00,30.4,29.0,00.0,39.2,32.2,16.4,0000.0,0009.26,0004.60,0004.02
2022-10-16 03:23:00,,0833.3,4.99,0.00,30.4,29.0,00.0,39.2,32.2,16.4,0000.0,0009.89,0004.66,0004.02
2022-10-16 03:24:00,,0833.3,5.00,0.00,30.4,29.0,00.0,39.2,32.2,16.4,0000.0,0010.25,0004.66,0004.01
2022-10-16 03:25:00,,0833.3,5.01,0.00,30.4,29.0,00.0,39.2,32.2,16.3,0000.0,0010.12,0004.68,0004.01
2022-10-16 03:26:00,,0833.4,5.00,0.00,30.4,29.0,00.0,39.2,32.2,16.4,0000.0,0009.78,0004.65,0004.02
2022-10-16 03:27:00,,0833.4,4.99,0.00,30.4,29.0,00.0,39.2,32.2,16.3,0000.0,0009.87,0004.68,0004.02
2022-10-16 03:28:00,,0833.5,5.00,0.00,30.4,29.0,00.0,39.2,32.2,16.3,0000.0,0009.98,0004.71,0004.04
2022-10-16 03:29:00,,0833.5,5.00,0.00,30.4,29.0,00.0,39.2,32.2,16.4,0000.0,0009.93,0004.72,0004.05
2022-10-16 03:30:00,,0833.4,4.99,0.00,30.4,29.0,00.0,39.2,32.2,16.4,0000.0,0009.59,0004.70,0004.06
2022-10-16 03:31:00,,0833.4,5.00,0.00,30.4,29.0,00.0,39.2,32.2,16.3,0000.0,0009.70,0004.69,0004.07
2022-10-16 03:32:00,,0833.5,5.01,0.00,30.4,29.0,00.0,39.2,32.2,16.2,0000.0,0009.88,0004.68,0004.07
2022-10-16 03:33:00,,0833.4,5.01,0.00,30.5,29.0,00.0,39.2,32.3,16.3,0000.0,0009.68,0004.69,0004.08
2022-10-16 03:34:00,,0833.4,5.00,0.00,30.5,29.1,00.0,39.2,32.3,16.2,0000.0,0009.10,0004.67,0004.09
2022-10-16 03:35:00,,0833.5,4.99,0.00,30.5,29.1,00.0,39.2,32.2,16.2,0000.0,0008.87,0004.67,0004.11
2022-10-16 03:36:00,,0833.6,4.99,0.00,30.5,29.0,00.0,39.3,32.2,16.3,0000.0,0009.47,0004.68,0004.12
2022-10-16 03:37:00,,0833.6,5.02,0.00,30.5,29.0,00.0,39.3,32.3,16.3,0000.0,0009.79,0004.68,0004.12
2022-10-16 03:38:00,,0833.6,4.99,0.00,30.5,29.1,00.0,39.3,32.3,16.2,0000.0,0010.25,0004.64,0004.12
2022-10-16 03:39:00,,0833.6,4.99,0.00,30.5,29.1,00.0,39.3,32.3,16.2,0000.0,0010.52,0004.62,0004.12
2022-10-16 03:40:00,,0833.6,5.02,0.00,30.5,29.1,00.0,39.3,32.3,16.3,0000.0,0010.94,0004.62,0004.12
2022-10-16 03:41:00,,0833.6,4.98,0.00,30.5,29.1,00.0,39.3,32.3,16.3,0000.0,0010.95,0004.65,0004.12
2022-10-16 03:42:00,,0833.6,4.99,0.00,30.5,29.1,00.0,39.3,32.3,16.2,0000.0,0011.36,0004.65,0004.11
2022-10-16 03:43:00,,0833.7,5.00,0.00,30.5,29.1,00.0,39.3,32.3,16.1,0000.0,0011.14,0004.66,0004.10
2022-10-16 03:44:00,,0833.6,5.00,0.00,30.5,29.1,00.0,39.3,32.3,16.1,0000.0,0011.10,0004.68,0004.11
2022-10-16 03:45:00,,0833.6,5.00,0.00,30.5,29.1,00.0,39.3,32.3,16.1,0000.0,0011.10,0004.65,0004.10
2022-10-16 03:46:00,,0833.6,5.00,0.00,30.5,29.1,00.0,39.3,32.3,16.1,0000.0,0011.08,0004.63,0004.10
2022-10-16 03:47:00,,0833.6,5.00,0.00,30.5,29.1,00.0,39.3,32.3,16.1,0000.0,0010.51,0004.64,0004.10
2022-10-16 03:48:00,,0833.6,5.00,0.00,30.5,29.1,00.0,39.3,32.3,16.1,0000.0,0010.26,0004.64,0004.09
2022-10-16 03:49:00,,0833.6,5.00,0.00,30.5,29.1,00.0,39.3,32.3,16.1,0000.0,0009.97,0004.66,0004.10
2022-10-16 03:50:00,,0833.6,5.00,0.00,30.5,29.1,00.0,39.3,32.3,16.0,0000.0,0009.83,0004.65,0004.08
2022-10-16 03:51:00,,0833.6,5.00,0.00,30.5,29.1,00.0,39.3,32.3,16.0,0000.0,0009.81,0004.64,0004.07
2022-10-16 03:52:00,,0833.6,5.00,0.00,30.5,29.1,00.0,39.3,32.3,16.0,0000.0,0009.74,0004.59,0004.06
2022-10-16 03:53:00,,0833.6,5.01,0.00,30.5,29.1,00.0,39.3,32.3,16.0,0000.0,0009.04,0004.57,0004.07
2022-10-16 03:54:00,,0833.6,5.00,0.00,30.5,29.1,00.0,39.3,32.3,16.0,0000.0,0008.86,0004.57,0004.06
2022-10-16 03:55:00,,0833.6,4.99,0.00,30.5,29.1,00.0,39.3,32.3,16.1,0000.0,0008.78,0004.54,0004.05
2022-10-16 03:56:00,,0833.6,4.99,0.00,30.5,29.1,00.0,39.3,32.3,16.0,0000.0,0009.37,0004.54,0004.05
2022-10-16 03:57:00,,0833.6,4.99,0.00,30.5,29.1,00.0,39.3,32.3,16.0,0000.0,0009.86,0004.56,0004.04
2022-10-16 03:58:00,,0833.6,5.00,0.00,30.6,29.1,00.0,39.3,32.3,16.0,0000.0,0009.91,0004.55,0004.04
2022-10-16 03:59:00,,0833.6,5.00,0.00,30.6,29.1,00.0,39.3,32.4,16.0,0000.0,0010.03,0004.57,0004.02
